This is the latest recevied weather packets stored in our database for station/object EA2MKR. If no packets are shown the sender has not sent any weather packets the latest 10 day(s).
| Time | Temp. | Humidity | Pressure | Rain* | Wind** | Luminosity | Snow |
|---|---|---|---|---|---|---|---|
| 1788507796 | 19.44° C | 66% | 959.7 hPa | 0 mm | - | - | - |
| 1788507496 | 18.89° C | 67% | 959.8 hPa | 0 mm | - | - | - |
| 1788507319 | 18.33° C | 59% | 959.8 hPa | 0 mm | - | - | - |
| 1788506895 | 17.78° C | 73% | 959.7 hPa | 0 mm | - | - | - |
| 1788506595 | 16.67° C | 76% | 959.8 hPa | 0 mm | - | - | - |
| 1788506295 | 16.11° C | 76% | 959.9 hPa | 0 mm | - | - | - |
| 1788505995 | 15.56° C | 78% | 959.8 hPa | 0 mm | - | - | - |
| 1788505694 | 15° C | 79% | 959.8 hPa | 0 mm | - | - | - |
| 1788505519 | 14.44° C | 81% | 959.7 hPa | 0 mm | - | - | - |
| 1788505094 | 13.89° C | 82% | 959.7 hPa | 0 mm | - | - | - |
| 1788504795 | 13.89° C | 83% | 959.7 hPa | 0 mm | - | - | - |
| 1788504495 | 13.89° C | 83% | 959.7 hPa | 0 mm | - | - | - |
| 1788504319 | 13.33° C | 83% | 959.7 hPa | 0 mm | - | - | - |
| 1788503894 | 13.33° C | 83% | 959.7 hPa | 0 mm | - | - | - |
| 1788503594 | 13.89° C | 83% | 959.6 hPa | 0 mm | - | - | - |
| 1788503294 | 13.89° C | 83% | 959.6 hPa | 0 mm | - | - | - |
| 1788502994 | 13.33° C | 85% | 959.4 hPa | 0 mm | - | - | - |
| 1788502694 | 13.33° C | 86% | 959.5 hPa | 0 mm | - | - | - |
| 1788502518 | 12.78° C | 86% | 959.6 hPa | 0 mm | - | - | - |
| 1788502217 | 13.33° C | 88% | 959.5 hPa | 0 mm | - | - | - |
| 1788501794 | 12.78° C | 88% | 959.4 hPa | 0 mm | - | - | - |
| 1788501493 | 12.78° C | 88% | 959.4 hPa | 0 mm | - | - | - |
| 1788501193 | 12.78° C | 88% | 959.2 hPa | 0 mm | - | - | - |
| 1788500893 | 12.78° C | 87% | 959.2 hPa | 0 mm | - | - | - |
| 1788500592 | 12.78° C | 87% | 959.2 hPa | 0 mm | - | - | - |
* Rain latest hour (hover to see other rain measurements)
** Current wind speed in m/s (hover to see current wind gust speed)